N155KF -KMLB

Flight info

Callsign N155KF
Flight time N/A
Altitude VFR
Route
Aircraft C208/L-DOV/C

Departure

Time N/A
Airport -

Arrival

Time 2026-04-25 13:43
Airport Melbourne Orlando International Airport (KMLB)
Time Latitude Longitude Altitude Speed Heading
2026-04-25 13:30 27.76364 -80.39714 2515 ft 160 kts 340°
2026-04-25 13:30 27.77423 -80.40099 2502 ft 159 kts 341°
2026-04-25 13:30 27.78453 -80.40534 2504 ft 157 kts 338°
2026-04-25 13:31 27.79674 -80.41077 2502 ft 157 kts 338°
2026-04-25 13:31 27.80687 -80.41526 2503 ft 156 kts 337°
2026-04-25 13:31 27.81680 -80.42006 2503 ft 155 kts 336°
2026-04-25 13:31 27.82674 -80.42490 2502 ft 155 kts 336°
2026-04-25 13:32 27.83658 -80.42968 2524 ft 154 kts 336°
2026-04-25 13:32 27.84631 -80.43442 2522 ft 154 kts 336°
2026-04-25 13:32 27.85631 -80.43929 2520 ft 155 kts 336°
2026-04-25 13:32 27.86600 -80.44425 2522 ft 155 kts 333°
2026-04-25 13:33 27.87570 -80.44963 2520 ft 155 kts 333°
2026-04-25 13:33 27.88541 -80.45500 2522 ft 155 kts 333°
2026-04-25 13:33 27.89513 -80.46038 2522 ft 155 kts 333°
2026-04-25 13:33 27.90484 -80.46577 2520 ft 155 kts 333°
2026-04-25 13:34 27.91453 -80.47116 2513 ft 155 kts 333°
2026-04-25 13:34 27.92422 -80.47653 2508 ft 155 kts 333°
2026-04-25 13:34 27.93395 -80.48192 2509 ft 156 kts 333°
2026-04-25 13:34 27.94371 -80.48734 2512 ft 156 kts 333°
2026-04-25 13:35 27.95288 -80.49386 2508 ft 156 kts 317°
2026-04-25 13:35 27.96068 -80.50239 2510 ft 156 kts 315°
2026-04-25 13:35 27.96897 -80.51061 2516 ft 162 kts 318°
2026-04-25 13:35 27.97762 -80.51874 2510 ft 164 kts 320°
2026-04-25 13:36 27.98642 -80.52675 2515 ft 162 kts 320°
2026-04-25 13:36 27.99511 -80.53465 2512 ft 159 kts 320°
2026-04-25 13:36 28.00371 -80.54250 2511 ft 158 kts 320°
2026-04-25 13:36 28.01224 -80.55030 2511 ft 157 kts 320°
2026-04-25 13:37 28.02074 -80.55809 2511 ft 157 kts 320°
2026-04-25 13:37 28.02919 -80.56581 2475 ft 154 kts 320°
2026-04-25 13:37 28.03749 -80.57340 2350 ft 153 kts 320°
2026-04-25 13:37 28.04572 -80.58092 2224 ft 152 kts 319°
2026-04-25 13:38 28.05391 -80.58843 2095 ft 151 kts 319°
2026-04-25 13:38 28.06213 -80.59605 1997 ft 154 kts 316°
2026-04-25 13:38 28.06988 -80.60374 1851 ft 140 kts 316°
2026-04-25 13:38 28.07690 -80.61070 1717 ft 128 kts 316°
2026-04-25 13:39 28.08342 -80.61714 1570 ft 122 kts 316°
2026-04-25 13:39 28.08979 -80.62341 1506 ft 121 kts 316°
2026-04-25 13:39 28.09610 -80.62963 1504 ft 120 kts 316°
2026-04-25 13:39 28.10232 -80.63583 1511 ft 119 kts 316°
2026-04-25 13:40 28.10859 -80.64196 1501 ft 119 kts 317°
2026-04-25 13:40 28.11467 -80.64793 1510 ft 111 kts 316°
2026-04-25 13:40 28.11997 -80.65421 1504 ft 110 kts 290°
2026-04-25 13:40 28.12019 -80.66257 1454 ft 106 kts 265°
2026-04-25 13:41 28.11993 -80.67061 1374 ft 105 kts 265°
2026-04-25 13:41 28.11954 -80.67902 1240 ft 108 kts 264°
2026-04-25 13:41 28.11863 -80.68758 1064 ft 111 kts 245°
2026-04-25 13:41 28.11275 -80.69229 966 ft 107 kts 180°
2026-04-25 13:42 28.10699 -80.68808 824 ft 105 kts 128°
2026-04-25 13:42 28.10439 -80.68077 617 ft 96 kts 94°
2026-04-25 13:42 28.10481 -80.67357 417 ft 86 kts 90°
2026-04-25 13:42 28.10515 -80.66677 256 ft 86 kts 88°
2026-04-25 13:43 28.10540 -80.66011 88 ft 82 kts 90°
2026-04-25 13:43 28.10574 -80.65404 35 ft 69 kts 88°
2026-04-25 13:43 28.10591 -80.64940 36 ft 52 kts 86°
2026-04-25 13:43 28.10608 -80.64583 33 ft 42 kts 86°
2026-04-25 13:44 28.10620 -80.64286 30 ft 27 kts 86°
2026-04-25 13:44 28.10652 -80.64154 30 ft 12 kts 40°
2026-04-25 13:44 28.10711 -80.64144 30 ft 4 kts 18°
2026-04-25 13:44 28.10712 -80.64143 30 ft 0 kts 25°
2026-04-25 13:45 28.10720 -80.64108 30 ft 10 kts 85°
2026-04-25 13:46 28.10726 -80.63998 32 ft 14 kts 88°
2026-04-25 13:46 28.10730 -80.63902 34 ft 11 kts 85°
2026-04-25 13:46 28.10735 -80.63812 34 ft 15 kts 86°
2026-04-25 13:46 28.10734 -80.63690 33 ft 13 kts 106°
2026-04-25 13:47 28.10678 -80.63597 33 ft 14 kts 126°
2026-04-25 13:47 28.10621 -80.63520 33 ft 12 kts 131°
2026-04-25 13:47 28.10567 -80.63448 32 ft 12 kts 132°
2026-04-25 13:47 28.10519 -80.63382 33 ft 10 kts 129°
2026-04-25 13:48 28.10478 -80.63325 33 ft 9 kts 130°
2026-04-25 13:48 28.10435 -80.63268 33 ft 10 kts 130°
2026-04-25 13:48 28.10387 -80.63204 31 ft 11 kts 131°
2026-04-25 13:48 28.10382 -80.63165 30 ft 5 kts 36°
2026-04-25 13:49 28.10436 -80.63106 31 ft 12 kts 44°
2026-04-25 13:49 28.10490 -80.63048 31 ft 8 kts 46°
2026-04-25 13:49 28.10519 -80.63012 30 ft 4 kts 48°
2026-04-25 13:49 28.10532 -80.62995 31 ft 3 kts 48°
2026-04-25 13:50 28.10554 -80.62982 31 ft 4 kts 322°
2026-04-25 13:50 28.10564 -80.62993 31 ft 1 kts 316°
2026-04-25 13:50 28.10575 -80.62988 31 ft 2 kts 44°
2026-04-25 13:50 28.10576 -80.62972 31 ft 3 kts 141°
2026-04-25 13:51 28.10575 -80.62971 31 ft 0 kts 141°